[[{"header":{"parameterUnit":"m.s-1","parameterCategory":1,"la1":30.2991,"la2":30.254,"lo1":-89.0895,"lo2":-89.0444,"dy":0.0017,"dx":0.0017,"nx":28,"ny":28,"refTime":"2026-02-18T03:00:00:Z","depth":0,"parameterNumber":2,"parameterNumberName":"U-component_of_WINDS"},"data":[0,0,0,0,0,0,0,0,0,0,0,0,0,0,0,0,0,0,0,0,0,0,0,0,0,0,0,0,0,0,0,0,0,0,0,0,0,0,0,0,0,0,0,0,0,0,0,0,0,0,0,0,0,0,0,0,0,0,-0.6987,-0.6988,0,-0.7037,-0.7038,-0.7038,-0.7048,-0.7048,-0.7048,-0.7047,-0.7097,-0.7098,-0.71,0,0,0,0,0,0,0,0,0,0,0,0,0,-0.6899,-0.69,-0.6987,-0.6988,-0.6988,-0.7037,-0.7038,-0.7039,-0.7048,-0.7048,-0.7047,-0.7047,-0.7096,-0.7098,-0.71,0,0,0,0,0,0,0,0,0,0,0,0,0,-0.6942,-0.6901,-0.6987,-0.6999,-0.7001,-0.7037,-0.7038,-0.7039,-0.7048,-0.7048,-0.7047,-0.7047,-0.7096,-0.7098,-0.7101,-0.7128,0,0,-0.7108,-0.7109,0,0,0,0,0,0,0,0,-0.6939,-0.6945,-0.6997,-0.6998,-0.7,-0.7036,-0.7025,-0.7069,-0.7049,-0.703,-0.7047,-0.7046,-0.7077,-0.7081,-0.7092,-0.713,-0.7132,-0.7108,-0.711,-0.7111,-0.7112,0,0,0,0,0,0,0,-0.6936,-0.6943,-0.7007,-0.6998,-0.7,-0.7002,-0.7007,-0.7033,-0.7056,-0.7032,-0.7033,-0.7039,-0.7078,-0.7089,-0.7093,-0.7133,-0.7108,-0.7111,-0.7112,-0.7113,-0.7196,-0.7196,0,0,0,0,0,0,-0.6931,-0.694,-0.7005,-0.7009,-0.6968,-0.7004,-0.701,-0.7025,-0.7056,-0.706,-0.7039,-0.7039,-0.7085,-0.709,-0.7095,-0.7128,-0.7111,-0.7113,-0.7115,-0.7195,-0.7196,-0.7196,0,0,0,0,0,0,-0.6929,-0.6937,-0.7003,-0.6975,-0.6983,-0.7006,-0.7023,-0.7026,-0.7038,-0.7061,-0.7065,-0.7047,-0.7085,-0.7091,-0.7119,-0.713,-0.7115,-0.7117,-0.7194,-0.7195,-0.7196,-0.7195,0,0,0,0,0,0,-0.6927,-0.6936,-0.6947,-0.6975,-0.6985,-0.7028,-0.7024,-0.7028,-0.7042,-0.7043,-0.7069,-0.7073,-0.7085,-0.7116,-0.7122,-0.7133,-0.7119,-0.7193,-0.7195,-0.7196,-0.7194,-0.7196,-0.7197,0,0,0,0,0,-0.6924,-0.6945,-0.6948,-0.6955,-0.6999,-0.7028,-0.7034,-0.7047,-0.7043,-0.7054,-0.7069,-0.7073,-0.7128,-0.7118,-0.7126,-0.7138,-0.7193,-0.7194,-0.7196,-0.7193,-0.7196,-0.7197,0,0,0,0,0,0,-0.6917,-0.6948,-0.6952,-0.6983,-0.7003,-0.703,-0.7044,-0.7049,-0.707,-0.707,-0.7085,-0.7091,-0.7118,-0.7131,-0.712,-0.7165,-0.716,-0.7163,-0.7156,-0.7158,-0.7159,-0.7155,-0.7121,0,0,0,0,0,-0.6919,-0.6941,-0.6967,-0.6992,-0.7002,-0.7021,-0.7035,-0.7043,-0.7064,-0.7073,-0.709,-0.711,-0.7132,-0.7146,-0.7167,-0.7196,-0.7202,-0.7208,-0.721,-0.7211,-0.7213,-0.7229,-0.7232,-0.7201,-0.7201,-0.7201,0,0,-0.6924,-0.6944,-0.6957,-0.6991,-0.7008,-0.7029,-0.7028,-0.7051,-0.7067,-0.7076,-0.7104,-0.7117,-0.714,-0.7169,-0.7183,-0.7181,-0.7223,-0.7213,-0.7213,-0.7215,-0.7231,-0.7233,-0.7236,-0.7202,-0.7202,-0.7202,0,0,-0.6943,-0.6961,-0.6983,-0.7,-0.7025,-0.7038,-0.7043,-0.707,-0.7079,-0.7107,-0.7114,-0.7133,-0.7171,-0.7187,-0.72,-0.7225,-0.7229,-0.7232,-0.7239,-0.7255,-0.7257,-0.7259,-0.7268,-0.727,-0.7234,-0.7234,-0.7234,0,-0.6946,-0.6979,-0.6994,-0.7017,-0.7031,-0.7041,-0.7063,-0.7078,-0.7109,-0.7118,-0.7116,-0.7163,-0.7179,-0.7212,-0.7218,-0.7229,-0.7234,-0.7228,-0.7256,-0.7258,-0.726,-0.7268,-0.7271,-0.7234,-0.7234,-0.7234,-0.7234,0,-0.698,-0.7003,-0.7018,-0.7048,-0.7065,-0.7087,-0.7104,-0.7119,-0.7126,-0.7139,-0.7167,-0.7188,-0.7213,-0.7221,-0.7229,-0.7255,-0.7253,-0.7253,-0.7247,-0.7263,-0.7271,-0.7274,-0.7234,-0.7234,-0.7234,-0.7234,0,0,-0.6997,-0.7034,-0.704,-0.7053,-0.7082,-0.7099,-0.7122,-0.7147,-0.7159,-0.718,-0.7199,-0.7231,-0.7231,-0.7246,-0.7255,-0.7268,-0.7286,-0.7267,-0.7267,-0.7269,-0.7315,-0.7314,-0.7318,-0.7289,-0.729,-0.729,-0.7313,0,-0.7019,-0.706,-0.7074,-0.7107,-0.7128,-0.7138,-0.7157,-0.7177,-0.7189,-0.7209,-0.7223,-0.7244,-0.7244,-0.7252,-0.7266,-0.7281,-0.7296,-0.728,-0.7306,-0.7307,-0.7299,-0.7322,-0.7321,-0.7342,-0.7316,-0.7317,-0.7317,0,-0.705,-0.7072,-0.7108,-0.7133,-0.7143,-0.716,-0.7184,-0.7203,-0.7225,-0.7233,-0.725,-0.7258,-0.7281,-0.7275,-0.7307,-0.7296,-0.7307,-0.7316,-0.7317,-0.7319,-0.7312,-0.7324,-0.7349,-0.7351,-0.7322,-0.7322,-0.7322,0,-0.7057,-0.7096,-0.7122,-0.7133,-0.7164,-0.7176,-0.7189,-0.7211,-0.7225,-0.7246,-0.7255,-0.7278,-0.7291,-0.7308,-0.7322,-0.7317,-0.7353,-0.7348,-0.7359,-0.7359,-0.7366,-0.7365,-0.7392,-0.7375,-0.7375,-0.7374,-0.7374,0,-0.708,-0.7102,-0.7125,-0.7141,-0.7166,-0.7181,-0.7204,-0.7218,-0.7237,-0.7256,-0.7265,-0.7282,-0.73,-0.7319,-0.733,-0.7354,-0.736,-0.7367,-0.7369,-0.7365,-0.7364,-0.7372,-0.7371,-0.7375,-0.7375,-0.7375,-0.7375,0,-0.7092,-0.7109,-0.7138,-0.7165,-0.7172,-0.7189,-0.7211,-0.7227,-0.724,-0.7263,-0.727,-0.729,-0.7313,-0.7329,-0.7359,-0.7366,-0.7392,-0.7395,-0.7385,-0.7386,-0.7396,-0.7394,-0.7428,-0.7433,-0.7413,-0.7413,-0.7413,0,-0.7105,-0.7122,-0.715,-0.7164,-0.7177,-0.7198,-0.7213,-0.7229,-0.7244,-0.727,-0.7282,-0.7306,-0.7326,-0.7362,-0.7379,-0.7402,-0.7404,-0.7415,-0.7408,-0.7403,-0.7403,-0.7402,-0.7403,-0.7415,-0.7415,-0.7416,-0.7416,0,-0.7126,-0.7134,-0.7155,-0.7179,-0.7196,-0.7216,-0.7235,-0.7245,-0.7265,-0.7281,-0.7304,-0.732,-0.735,-0.7373,-0.7397,-0.741,-0.7416,-0.7418,-0.7422,-0.7417,-0.7411,-0.7414,-0.7387,-0.7417,-0.7417,-0.7417,-0.7417,-0.7417,-0.7139,-0.7154,-0.7176,-0.7199,-0.7216,-0.7234,-0.7249,-0.7265,-0.7285,-0.7311,-0.7319,-0.7344,-0.7365,-0.7398,-0.7411,-0.743,-0.743,-0.7435,-0.7436,-0.7437,-0.7437,-0.7408,-0.7435,-0.7435,-0.7435,-0.7435,-0.7435,0,-0.7159,-0.7174,-0.7196,-0.7223,-0.7241,-0.7245,-0.7267,-0.7281,-0.7303,-0.7323,-0.7342,-0.7369,-0.7392,-0.7411,-0.7434,-0.7445,-0.7448,-0.7451,-0.745,-0.7452,-0.7437,-0.7431,-0.7448,-0.7448,-0.7448,-0.7448,-0.7448,-0.7448,-0.7172,-0.7198,-0.7208,-0.7242,-0.7257,-0.7281,-0.7293,-0.731,-0.7325,-0.7355,-0.7374,-0.7387,-0.7406,-0.743,-0.7451,-0.7456,-0.7463,-0.7465,-0.747,-0.7455,-0.7454,-0.7452,-0.7447,-0.7467,-0.7467,-0.7485,-0.7485,-0.7485]},{"header":{"parameterUnit":"m.s-1","parameterCategory":1,"la1":30.2991,"la2":30.254,"lo1":-89.0895,"lo2":-89.0444,"dy":0.0017,"dx":0.0017,"nx":28,"ny":28,"refTime":"2026-02-18T03:00:00:Z","depth":0,"parameterNumber":3,"parameterNumberName":"V-component_of_WINDS"},"data":[0,0,0,0,0,0,0,0,0,0,0,0,0,0,0,0,0,0,0,0,0,0,0,0,0,0,0,0,0,0,0,0,0,0,0,0,0,0,0,0,0,0,0,0,0,0,0,0,0,0,0,0,0,0,0,0,0,0,3.8757,3.8757,0,3.8751,3.8751,3.8751,3.8723,3.8722,3.8722,3.8721,3.8715,3.8716,3.8716,0,0,0,0,0,0,0,0,0,0,0,0,0,3.8748,3.8749,3.8757,3.8757,3.8757,3.8751,3.8751,3.8751,3.8723,3.8722,3.8721,3.8721,3.8715,3.8716,3.8716,0,0,0,0,0,0,0,0,0,0,0,0,0,3.8748,3.8749,3.8757,3.8742,3.8741,3.8751,3.8751,3.8751,3.8723,3.8722,3.8721,3.872,3.8715,3.8716,3.8716,3.8741,0,0,3.8719,3.8719,0,0,0,0,0,0,0,0,3.8748,3.8749,3.8745,3.8743,3.8742,3.8737,3.8746,3.8747,3.8723,3.873,3.8721,3.872,3.8723,3.8723,3.8724,3.874,3.874,3.8719,3.8719,3.8719,3.872,0,0,0,0,0,0,0,3.8748,3.8749,3.8755,3.8745,3.8743,3.8737,3.8736,3.8746,3.8732,3.8729,3.8727,3.8727,3.8722,3.8724,3.8724,3.874,3.8719,3.8719,3.872,3.872,3.8781,3.8782,0,0,0,0,0,0,3.875,3.8749,3.8755,3.8755,3.8743,3.8738,3.8737,3.8739,3.8732,3.873,3.8728,3.8726,3.8723,3.8723,3.8724,3.8755,3.8719,3.872,3.872,3.878,3.8781,3.8782,0,0,0,0,0,0,3.875,3.8751,3.8755,3.8751,3.8751,3.8739,3.8742,3.874,3.8741,3.8731,3.8729,3.8731,3.8722,3.8723,3.8738,3.8754,3.872,3.8721,3.8778,3.878,3.8782,3.8815,0,0,0,0,0,0,3.875,3.8751,3.8759,3.8752,3.8752,3.8768,3.8743,3.874,3.8742,3.8739,3.8734,3.8732,3.8722,3.8737,3.8738,3.8754,3.8722,3.8777,3.8779,3.8781,3.8812,3.8818,3.8822,0,0,0,0,0,3.875,3.8767,3.8759,3.876,3.8761,3.8769,3.8769,3.8757,3.8744,3.8753,3.8747,3.8732,3.8752,3.8739,3.874,3.8757,3.8776,3.8778,3.8781,3.881,3.8817,3.8822,0,0,0,0,0,0,3.8776,3.8766,3.8757,3.8773,3.8772,3.8764,3.8774,3.8763,3.8766,3.8763,3.8748,3.8747,3.8766,3.8762,3.8748,3.8782,3.8762,3.8765,3.8783,3.879,3.8794,3.8795,3.8722,0,0,0,0,0,3.8783,3.879,3.8781,3.8796,3.8797,3.8786,3.8789,3.878,3.8779,3.8778,3.8773,3.8773,3.878,3.8784,3.8789,3.8812,3.8812,3.8825,3.883,3.8834,3.8837,3.8853,3.8859,3.8791,3.8791,3.8791,0,0,3.8799,3.8795,3.8799,3.8802,3.88,3.8809,3.8786,3.8795,3.8802,3.8779,3.8794,3.8791,3.879,3.881,3.8819,3.8808,3.8856,3.8837,3.884,3.8841,3.8856,3.8863,3.8869,3.8793,3.8793,3.8792,0,0,3.8832,3.8829,3.8842,3.8842,3.8841,3.8835,3.8838,3.8833,3.8831,3.8845,3.883,3.8839,3.885,3.8851,3.8853,3.8893,3.8881,3.8895,3.8921,3.8937,3.8942,3.8947,3.8964,3.897,3.8898,3.8898,3.8898,0,3.8852,3.8864,3.8851,3.8863,3.8866,3.8847,3.8863,3.8864,3.8864,3.8867,3.8856,3.8872,3.887,3.8892,3.8902,3.8904,3.8909,3.8896,3.8942,3.8947,3.8951,3.8968,3.8974,3.89,3.89,3.89,3.89,0,3.889,3.8899,3.891,3.8913,3.8917,3.8931,3.8922,3.8928,3.892,3.8916,3.8934,3.8931,3.8938,3.8942,3.8933,3.8965,3.8959,3.8945,3.8924,3.896,3.8975,3.8981,3.8903,3.8902,3.8902,3.8901,0,0,3.8936,3.8935,3.894,3.8943,3.8942,3.895,3.8964,3.8972,3.8979,3.8981,3.8995,3.9006,3.8995,3.8998,3.899,3.9003,3.904,3.8989,3.8988,3.9,3.9078,3.909,3.9097,3.9032,3.9033,3.9034,3.9079,0,3.897,3.8994,3.8986,3.9011,3.9022,3.9007,3.902,3.9023,3.902,3.903,3.9027,3.9037,3.902,3.9022,3.9035,3.9032,3.9055,3.9029,3.9046,3.9047,3.9048,3.9104,3.9115,3.9159,3.9085,3.9086,3.9086,0,3.9012,3.9018,3.9045,3.9048,3.9052,3.9063,3.9072,3.9081,3.9085,3.9082,3.9088,3.9078,3.9095,3.9075,3.9099,3.9082,3.9089,3.9089,3.9091,3.9093,3.907,3.911,3.9171,3.9179,3.9095,3.9094,3.9094,0,3.9047,3.9062,3.9081,3.9084,3.9086,3.9096,3.9097,3.91,3.9107,3.9115,3.9119,3.9129,3.9134,3.9143,3.9137,3.9122,3.9164,3.9142,3.9165,3.9165,3.9174,3.9174,3.924,3.9176,3.9176,3.9176,3.9176,0,3.9086,3.9104,3.9098,3.9109,3.913,3.9122,3.9143,3.9143,3.9147,3.916,3.9148,3.9161,3.9152,3.9165,3.916,3.9184,3.9186,3.9186,3.9185,3.9188,3.9188,3.9193,3.919,3.9178,3.9178,3.9177,3.9177,0,3.9128,3.9124,3.9145,3.9147,3.9148,3.9164,3.9166,3.9179,3.9177,3.9194,3.9198,3.9195,3.9211,3.9206,3.9221,3.9219,3.925,3.9244,3.9249,3.9248,3.9272,3.9271,3.9344,3.9355,3.9283,3.9283,3.9284,0,3.9154,3.9168,3.9173,3.9181,3.9184,3.9197,3.9205,3.9199,3.9207,3.9216,3.9228,3.9243,3.9254,3.928,3.928,3.9293,3.9289,3.9314,3.9291,3.9295,3.9293,3.9293,3.9296,3.9319,3.932,3.932,3.9321,0,3.9201,3.92,3.9211,3.9224,3.9234,3.9243,3.9251,3.9259,3.9253,3.9264,3.9281,3.929,3.9308,3.9324,3.9337,3.934,3.9331,3.9328,3.9335,3.9339,3.9342,3.9344,3.9263,3.9327,3.9326,3.9326,3.9325,3.9325,3.9237,3.9251,3.9258,3.9272,3.9278,3.9287,3.9301,3.9302,3.9316,3.9331,3.9326,3.9346,3.9354,3.9371,3.9377,3.9393,3.9384,3.9392,3.9395,3.9397,3.9402,3.9339,3.9395,3.9395,3.9395,3.9395,3.9394,0,3.9286,3.9291,3.9305,3.9318,3.9331,3.9322,3.9332,3.9343,3.9361,3.9369,3.9382,3.9403,3.942,3.9423,3.9439,3.9452,3.9449,3.9457,3.9457,3.9458,3.9408,3.9402,3.946,3.946,3.946,3.946,3.946,3.946,3.9313,3.9337,3.9337,3.9365,3.937,3.939,3.9397,3.9407,3.9414,3.9439,3.9453,3.9455,3.9463,3.9481,3.9497,3.9497,3.9505,3.9516,3.9515,3.9468,3.9461,3.9455,3.945,3.9517,3.9517,3.9565,3.9565,3.9565]}]]